Simultaneous Nadir Overpasses (SNOs) Predictions

Prediction of SNOs between GOES-17 and NOAA-20 Satellite Orbit:

Table of predicted SNOs for the next 14.0 days since TLE Epoch: 3/16/2024
Index Date Time (GOES-17) GOES-17 Lat,Lon NOAA-20 Lat,Lon Distance(km) Time Diff (sec)
1 03/16/2024 08:33:06 -0.01,-104.70 0.41,-106.51 206.82 80
2 03/17/2024 08:11:42 -0.00,-104.70 -0.64,-101.99 309.75 80
3 03/18/2024 20:33:37 -0.00,-104.67 -0.57,-107.28 297.45 80
4 03/19/2024 20:17:31 -0.02,-104.67 0.43,-102.74 219.64 80
5 03/21/2024 08:39:18 0.01,-104.70 0.77,-108.00 377.21 80
6 03/22/2024 08:17:53 0.01,-104.70 -0.29,-103.48 139.54 80
7 03/23/2024 20:39:48 -0.01,-104.67 -0.91,-108.77 467.32 80
8 03/24/2024 20:23:43 -0.00,-104.67 0.10,-104.24 49.73 80
9 03/27/2024 08:26:45 -0.00,-104.71 0.03,-104.97 29.63 80
10 03/28/2024 08:05:19 -0.01,-104.71 -0.98,-100.43 487.30 80
11 03/29/2024 20:27:15 0.01,-104.68 -0.20,-105.73 119.88 80
